Location: Edoum�
(0.9447°N, 10.6482°E)
Time: 14:49:33
(UTC+00:00)

ARIANE 5 DEB (SYLDA) - Pass Details

Date: 07 June 2020
Orbit: 537 x 35719 km, 3.8° (Epoch: 07 July)

Event Time Altitude Azimuth Distance (km) Brightness Sun altitude
Exits shadow 03:44:37 28° 280° (W) 1,822 4.5 -20.7°
Maximum altitude 03:47:55 83° 6° (N) 1,583 4.5 -19.9°
Drops below altitude 10° 13:29:36 10° 92° (E) 13,588 9.1 51.0°
Sets 13:37:32 0° 91° (E) 12,573 8.9 49.3°
